AirNav   Everest Fuels
 
 1372 users online  

68IS Casa de Aero Park Airport
Hampshire, Illinois, USA

GOING TO HAMPSHIRE?


FAA INFORMATION EFFECTIVE 28 FEBRUARY 2019

Location

FAA Identifier: 68IS
Lat/Long: 42-08-54.9590N / 088-33-43.0095W
42-08.915983N / 088-33.716825W
42.1485997 / -88.5619471
(estimated)
Elevation: 860 ft. / 262 m (estimated)
Variation: 02W (2005)
From city: 3 miles NW of HAMPSHIRE, IL
Time zone: UTC -6 (UTC -5 during Daylight Saving Time)
Zip code: 60140

Airport Operations

Airport use: Private use. Permission required prior to landing
Activation date: 05/1971
Control tower: no
ARTCC: CHICAGO CENTER
FSS: KANKAKEE FLIGHT SERVICE STATION
NOTAMs facility: FDC (NOTAM-D service not available)
Attendance: MON-FRI 24 HOURS/DAY
Wind indicator: yes
Segmented circle: yes
Lights: 24 HRS

Airport Communications

WX AWOS-3 at DKB (14 nm SW): 119.075 (815-748-2350)

Nearby radio navigation aids

VOR radial/distance  VOR name  Freq  Var
DPAr327/18.1DUPAGE VOR/DME108.4002E
OBKr263/27.5NORTHBROOK VOR/DME113.0002W
RFDr098/28.7ROCKFORD VOR/DME110.8001E
JVLr133/34.4JANESVILLE VOR/DME114.3003E
JOTr341/37.7JOLIET VOR/DME112.3002E

 
NDB name  Hdg/Dist  Freq  Var  ID
LAKE LAWN180/33.040402WLVV .-.. ...- ...-

Airport Services

Airframe service: NONE
Powerplant service: NONE

Runway Information

Runway 9/27

Dimensions: 2998 x 50 ft. / 914 x 15 m
Surface: asphalt, in good condition
Runway edge lights: low intensity
RUNWAY 9  RUNWAY 27
Latitude: 42-08.915933N42-08.916033N
Longitude: 088-34.048533W088-33.385117W
Elevation: 846.6 ft.855.5 ft.
Traffic pattern: rightleft
Visual slope indicator: 2-box VASI on left (3.00 degrees glide path)
Touchdown point: yes, no lightsyes, no lights

Airport Ownership and Management from official FAA records

Ownership: Privately-owned
Owner: CASA DE AERO PARK CORP.
P.O. BOX 42
HAMPSHIRE, IL 60140
Phone (847) 217-9803
Manager: BILL WASCHER
CASA DE AERO PARK CORP., PO BOX 42
HAMPSHIRE, IL 60140
Phone (847) 217-9803

Airport Operational Statistics

Aircraft based on the field: 77
Single engine airplanes: 65
Multi engine airplanes: 7
Gliders airplanes: 1
Ultralights: 4
    

Additional Remarks

FOR CD CTC CHICAGO APCH AT 847-289-0926.

Instrument Procedures

There are no published instrument procedures at 68IS.

Some nearby airports with instrument procedures:

3CK - Lake in the Hills Airport (11 nm E)
KDKB - De Kalb Taylor Municipal Airport (14 nm SW)
C77 - Poplar Grove Airport (16 nm NW)
10C - Galt Field Airport (17 nm NE)
KDPA - DuPage Airport (20 nm SE)
 
Loc | Ops | Rwys | IFR | FBO | Links
Com | Nav | Svcs | Stats | Notes
Area around 68IS (Casa de Aero Park Airport)
 
Road maps at: MapQuest Bing Google
 
Aerial photo
WARNING: Photo may not be current or correct
Aerial photo of 68IS (Casa de Aero Park Airport)
Photo by Kyle J Grimmonpre
Photo taken 26-Jun-2012
from 2500' MSL, looking east.

Do you have a better or more recent aerial photo of Casa de Aero Park Airport that you would like to share? If so, please send us your photo.

 
Sectional chart

 
Airport distance calculator
Flying to Casa de Aero Park Airport? Find the distance to fly.

From to 68IS

Sunrise and sunset
Times for 21-Mar-2019
 Local
(UTC-5)
 Zulu
(UTC)
Morning civil twilight06:2911:29
Sunrise06:5711:57
Sunset19:0600:06
Evening civil twilight19:3400:34

Current date and time
Zulu (UTC)  21-Mar-2019 19:12:53
Local (UTC-5)  21-Mar-2019 14:12:53
 
METAR
KDKB 
14nm SW 
211855Z AUTO 32007KT 10SM SCT020 OVC027 07/01 A3003 RMK AO2 T00650010
KDPA 
20nm SE 
211852Z 30006KT 10SM OVC019 06/01 A3001 RMK AO2 SLP169 T00560011
K06C 
23nm SE 
211855Z AUTO 32005KT 10SM OVC017 05/01 A3001 RMK AO2 T00450013
KARR 
23nm S 
211859Z 31008KT 8SM OVC025 06/02 A3002 RMK AO2 T00560017
KRFD 
24nm W 
211854Z 31010KT 10SM OVC029 07/M01 A3006 RMK AO2 SLP183 T00721011
KRPJ 
28nm SW 
211855Z AUTO 32009KT 10SM OVC025 06/00 A3005 RMK AO2 T00570004
TAF
KDPA 
20nm SE 
211723Z 2118/2218 35012KT P6SM BKN010 OVC025 FM212000 30010KT P6SM BKN030 FM212300 27007KT P6SM SCT025 FM220500 32011KT P6SM BKN020 FM221300 35014G23KT P6SM BKN025 FM221700 35013G20KT P6SM BKN030
KRFD 
24nm W 
211723Z 2118/2218 31010KT P6SM BKN025 FM212100 28010KT P6SM SCT030 FM220400 33010KT P6SM BKN020 FM221500 25014G20KT P6SM BKN030
NOTAMs
Click for the latest NOTAMs
NOTAMs are issued by the DoD/FAA and will open in a separate window not controlled by AirNav.

 

 
 

Would you like to see your business listed on this page?

 If your business provides an interesting product or service to pilots, flight crews, aircraft, or users of the Casa de Aero Park Airport, you should consider listing it here.  To start the listing process, click on the button below
 
Add a business
 

Other Pages about Casa de Aero Park Airport

Update a link
 
Copyright © AirNav, LLC. All rights reserved. Privacy Policy  Contact